Back to catalog

STARLINK-3933

AliveCommunicationsVLEO
NORAD 52538·PAYLOAD·🇺🇸 United States

Launched May 13, 2022 from Vandenberg Space Force Base

Loading…

Next Passes (next 24 hours)

TLE

FreshSource: CelesTrak SupGP

Epoch: Sep 15, 2026, 02:49 UTC

1 52538C 22051F   26258.11784722  .00032778  00000+0  96852-3 0  2585
2 52538  53.1591 342.6350 0001217  92.7041 159.6084 15.34370950    17

Track STARLINK-3933 in real time with AllMySat

Download on the App Store